MSR864 LTAJ-LGAV

Flight info

Callsign MSR864
Flight time N/A
Altitude 36000
Route MILBA DCT MUT UR55 AYT DCT SONEN DCT RIPLI UL995 VARIX
Aircraft A21N/M-SDE2E3FGHIRWXY/LB1

Departure

Time 2026-05-01 13:49
Airport Gaziantep Oğuzeli International Airport (LTAJ)

Arrival

Time N/A
Airport Athens Eleftherios Venizelos International Airport (LGAV)
Time Latitude Longitude Altitude Speed Heading
2026-05-01 13:49 36.97700 37.30707 6651 ft 276 kts 267°
2026-05-01 13:49 36.97742 37.23358 9214 ft 279 kts 268°
2026-05-01 13:49 36.97827 37.12895 11240 ft 335 kts 268°
2026-05-01 13:50 36.97942 37.00169 12784 ft 383 kts 269°
2026-05-01 13:50 36.98047 36.86633 14962 ft 394 kts 269°
2026-05-01 13:50 36.98140 36.72749 16912 ft 404 kts 269°
2026-05-01 13:50 36.98209 36.58546 18686 ft 413 kts 269°
2026-05-01 13:51 36.98278 36.44269 20294 ft 421 kts 269°
2026-05-01 13:51 36.98298 36.35822 21235 ft 425 kts 269°
2026-05-01 13:51 36.98309 36.32155 21650 ft 427 kts 269°
2026-05-01 13:51 36.98318 36.28421 22071 ft 430 kts 269°
2026-05-01 13:52 36.98327 36.24672 22528 ft 432 kts 269°
2026-05-01 13:52 36.98336 36.20909 22970 ft 434 kts 269°
2026-05-01 13:52 36.98344 36.17123 23402 ft 436 kts 269°
2026-05-01 13:52 36.98350 36.13312 23767 ft 438 kts 269°
2026-05-01 13:53 36.98351 36.09489 24140 ft 440 kts 269°
2026-05-01 13:53 36.98340 36.01844 24827 ft 444 kts 269°
2026-05-01 13:53 36.98345 35.97979 25142 ft 446 kts 269°
2026-05-01 13:54 36.98350 35.94093 25496 ft 447 kts 269°
2026-05-01 13:54 36.98351 35.90209 25915 ft 446 kts 269°
2026-05-01 13:54 36.98349 35.87628 26210 ft 444 kts 269°
2026-05-01 13:54 36.98342 35.83764 26652 ft 443 kts 269°
2026-05-01 13:55 36.98331 35.79921 27084 ft 441 kts 269°
2026-05-01 13:55 36.98320 35.76090 27514 ft 440 kts 269°
2026-05-01 13:55 36.98313 35.72256 27936 ft 439 kts 269°
2026-05-01 13:55 36.98308 35.68444 28357 ft 437 kts 269°
2026-05-01 13:56 36.98296 35.64646 28788 ft 436 kts 269°
2026-05-01 13:56 36.98282 35.60902 29215 ft 434 kts 269°
2026-05-01 13:56 36.98266 35.57122 29640 ft 433 kts 269°
2026-05-01 13:56 36.98252 35.53351 30049 ft 431 kts 269°
2026-05-01 13:57 36.98236 35.49613 30420 ft 429 kts 269°
2026-05-01 13:57 36.98219 35.45872 30785 ft 427 kts 269°
2026-05-01 13:57 36.98202 35.42209 31143 ft 425 kts 269°
2026-05-01 13:57 36.98181 35.38515 31510 ft 423 kts 269°
2026-05-01 13:58 36.98159 35.34841 31854 ft 422 kts 269°
2026-05-01 13:58 36.98133 35.31176 32205 ft 420 kts 269°
2026-05-01 13:58 36.98112 35.27528 32542 ft 418 kts 269°
2026-05-01 13:58 36.98090 35.23899 32865 ft 416 kts 269°
2026-05-01 13:59 36.98067 35.20283 33190 ft 414 kts 269°
2026-05-01 13:59 36.98045 35.16690 33490 ft 412 kts 269°
2026-05-01 13:59 36.98019 35.13114 33786 ft 411 kts 269°
2026-05-01 13:59 36.97982 35.09547 34035 ft 409 kts 269°
2026-05-01 14:00 36.97955 35.05986 34261 ft 408 kts 269°
2026-05-01 14:00 36.97926 35.02493 34473 ft 407 kts 269°